TimeEST,TemperatureF,Dew PointF,Humidity,Sea Level PressureIn,VisibilityMPH,Wind Direction,Wind SpeedMPH,Gust SpeedMPH,PrecipitationIn,Events,Conditions,WindDirDegrees,DateUTC
12:14 AM,26.6,23.0,86,30.18,10.0,Calm,Calm,-,N/A,,Overcast,0,2012-12-09 05:14:00
12:34 AM,26.6,23.0,86,30.18,10.0,Calm,Calm,-,N/A,,Overcast,0,2012-12-09 05:34:00
12:55 AM,26.6,21.2,80,30.18,10.0,Calm,Calm,-,N/A,,Overcast,0,2012-12-09 05:55:00
1:14 AM,24.8,21.2,86,30.18,10.0,Calm,Calm,-,N/A,,Mostly Cloudy,0,2012-12-09 06:14:00
1:35 AM,24.8,21.2,86,30.20,10.0,Calm,Calm,-,N/A,,Scattered Clouds,0,2012-12-09 06:35:00
1:55 AM,21.2,19.4,93,30.20,10.0,Calm,Calm,-,N/A,,Scattered Clouds,0,2012-12-09 06:55:00
2:14 AM,21.2,19.4,93,30.20,10.0,Calm,Calm,-,N/A,,Clear,0,2012-12-09 07:14:00
2:35 AM,17.6,15.8,93,30.22,10.0,Calm,Calm,-,N/A,,Mostly Cloudy,0,2012-12-09 07:35:00
2:55 AM,19.4,17.6,93,30.23,10.0,South,3.5,-,N/A,,Overcast,170,2012-12-09 07:55:00
3:14 AM,23.0,21.2,93,30.23,10.0,South,3.5,-,N/A,,Overcast,170,2012-12-09 08:14:00
3:35 AM,24.8,21.2,86,30.23,10.0,Calm,Calm,-,N/A,,Mostly Cloudy,0,2012-12-09 08:35:00
3:55 AM,23.0,19.4,86,30.23,10.0,Calm,Calm,-,N/A,,Overcast,0,2012-12-09 08:55:00
4:14 AM,24.8,19.4,80,30.23,10.0,Calm,Calm,-,N/A,,Overcast,0,2012-12-09 09:14:00
4:35 AM,21.2,19.4,93,30.25,10.0,Calm,Calm,-,N/A,,Overcast,0,2012-12-09 09:35:00
4:54 AM,23.0,21.2,93,30.25,10.0,Calm,Calm,-,N/A,,Overcast,0,2012-12-09 09:54:00
5:14 AM,24.8,21.2,86,30.25,10.0,Calm,Calm,-,N/A,,Overcast,0,2012-12-09 10:14:00
5:34 AM,23.0,21.2,93,30.24,10.0,Calm,Calm,-,N/A,,Mostly Cloudy,0,2012-12-09 10:34:00
5:54 AM,23.0,19.4,86,30.23,10.0,NE,3.5,-,N/A,,Mostly Cloudy,50,2012-12-09 10:54:00
6:15 AM,21.2,19.4,93,30.22,10.0,ENE,3.5,-,N/A,,Scattered Clouds,70,2012-12-09 11:15:00
6:34 AM,21.2,17.6,86,30.23,10.0,ESE,3.5,-,N/A,,Clear,120,2012-12-09 11:34:00
6:55 AM,19.4,17.6,93,30.24,10.0,Calm,Calm,-,N/A,,Clear,0,2012-12-09 11:55:00
7:15 AM,21.2,19.4,93,30.22,10.0,Calm,Calm,-,N/A,,Mostly Cloudy,0,2012-12-09 12:15:00
7:34 AM,21.2,19.4,93,30.22,10.0,East,4.6,-,N/A,,Overcast,80,2012-12-09 12:34:00
7:55 AM,21.2,19.4,93,30.23,10.0,Calm,Calm,-,N/A,,Overcast,0,2012-12-09 12:55:00
8:15 AM,21.2,19.4,93,30.22,10.0,North,3.5,-,N/A,,Overcast,350,2012-12-09 13:15:00
8:34 AM,21.2,19.4,93,30.23,10.0,Calm,Calm,-,N/A,,Overcast,0,2012-12-09 13:34:00
8:55 AM,23.0,21.2,93,30.23,10.0,Calm,Calm,-,N/A,,Overcast,0,2012-12-09 13:55:00
9:15 AM,23.0,21.2,93,30.24,10.0,ENE,3.5,-,N/A,,Overcast,70,2012-12-09 14:15:00
9:34 AM,24.8,21.2,86,30.24,10.0,East,4.6,-,N/A,,Overcast,80,2012-12-09 14:34:00
9:55 AM,24.8,21.2,86,30.23,10.0,ENE,6.9,-,N/A,,Mostly Cloudy,60,2012-12-09 14:55:00
10:14 AM,24.8,21.2,86,30.23,10.0,East,5.8,-,N/A,,Mostly Cloudy,80,2012-12-09 15:14:00
10:35 AM,26.6,21.2,80,30.23,10.0,East,6.9,-,N/A,,Overcast,80,2012-12-09 15:35:00
10:55 AM,26.6,21.2,80,30.21,10.0,ENE,8.1,-,N/A,,Overcast,70,2012-12-09 15:55:00
11:14 AM,26.6,21.2,80,30.19,10.0,ENE,9.2,-,N/A,,Overcast,70,2012-12-09 16:14:00
11:35 AM,26.6,21.2,80,30.19,10.0,ENE,10.4,-,N/A,,Overcast,70,2012-12-09 16:35:00
11:54 AM,26.6,21.2,80,30.19,10.0,East,10.4,-,N/A,,Overcast,90,2012-12-09 16:54:00
12:14 PM,26.6,21.2,80,30.18,10.0,ENE,10.4,-,N/A,,Overcast,70,2012-12-09 17:14:00
12:35 PM,26.6,21.2,80,30.17,10.0,East,10.4,17.3,N/A,,Overcast,80,2012-12-09 17:35:00
12:54 PM,26.6,21.2,80,30.16,10.0,ENE,13.8,18.4,N/A,,Overcast,70,2012-12-09 17:54:00
1:15 PM,26.6,21.2,80,30.15,10.0,East,11.5,17.3,N/A,,Overcast,80,2012-12-09 18:15:00
1:35 PM,26.6,21.2,80,30.13,10.0,ENE,12.7,-,N/A,,Overcast,70,2012-12-09 18:35:00
1:54 PM,26.6,21.2,80,30.12,10.0,ENE,11.5,-,N/A,,Overcast,70,2012-12-09 18:54:00
2:15 PM,26.6,21.2,80,30.11,10.0,East,13.8,18.4,N/A,,Overcast,80,2012-12-09 19:15:00
2:35 PM,26.6,21.2,80,30.10,10.0,East,13.8,18.4,N/A,,Overcast,80,2012-12-09 19:35:00
2:54 PM,26.6,21.2,80,30.09,10.0,ENE,15.0,-,N/A,,Overcast,70,2012-12-09 19:54:00
3:15 PM,26.6,21.2,80,30.08,10.0,East,12.7,-,N/A,,Overcast,80,2012-12-09 20:15:00
3:34 PM,26.6,21.2,80,30.08,10.0,ENE,10.4,-,N/A,,Overcast,60,2012-12-09 20:34:00
3:54 PM,24.8,21.2,86,30.07,10.0,ENE,10.4,-,N/A,,Overcast,70,2012-12-09 20:54:00
4:15 PM,24.8,21.2,86,30.07,1.5,ENE,9.2,-,N/A,Snow,Light Snow,70,2012-12-09 21:15:00
4:34 PM,24.8,21.2,86,30.06,1.5,NE,10.4,-,N/A,Snow,Light Snow,50,2012-12-09 21:34:00
4:55 PM,23.0,21.2,93,30.04,1.5,ENE,11.5,-,N/A,Snow,Light Snow,60,2012-12-09 21:55:00
5:15 PM,23.0,21.2,93,30.03,1.8,ENE,10.4,-,N/A,Snow,Light Snow,60,2012-12-09 22:15:00
5:34 PM,23.0,19.4,86,30.01,2.0,ENE,10.4,-,N/A,Snow,Light Snow,60,2012-12-09 22:34:00
5:55 PM,23.0,19.4,86,30.00,2.0,ENE,10.4,-,N/A,Snow,Light Snow,60,2012-12-09 22:55:00
6:15 PM,21.2,19.4,93,29.99,2.0,ENE,11.5,-,N/A,Snow,Light Snow,60,2012-12-09 23:15:00
6:34 PM,21.2,19.4,93,29.98,2.5,ENE,9.2,-,N/A,Snow,Light Snow,60,2012-12-09 23:34:00
6:55 PM,21.2,19.4,93,29.97,2.0,ENE,11.5,-,N/A,Snow,Light Snow,60,2012-12-09 23:55:00
7:14 PM,21.2,19.4,93,29.96,1.8,ENE,10.4,-,N/A,Snow,Light Snow,60,2012-12-10 00:14:00
7:34 PM,21.2,19.4,93,29.96,3.0,NE,8.1,-,N/A,Snow,Light Snow,50,2012-12-10 00:34:00
7:55 PM,21.2,19.4,93,29.94,2.0,ENE,10.4,-,N/A,Snow,Light Snow,60,2012-12-10 00:55:00
8:14 PM,21.2,19.4,93,29.93,2.5,NE,9.2,-,N/A,Snow,Light Snow,50,2012-12-10 01:14:00
8:34 PM,21.2,19.4,93,29.92,2.5,NE,10.4,17.3,N/A,Snow,Light Snow,50,2012-12-10 01:34:00
8:55 PM,21.2,19.4,93,29.92,2.5,ENE,11.5,-,N/A,Snow,Light Snow,60,2012-12-10 01:55:00
9:14 PM,21.2,19.4,93,29.91,1.8,ENE,11.5,17.3,N/A,Snow,Light Snow,60,2012-12-10 02:14:00
9:35 PM,21.2,19.4,93,29.90,1.8,NE,9.2,-,N/A,Snow,Light Snow,50,2012-12-10 02:35:00
9:55 PM,21.2,19.4,93,29.90,1.5,NE,5.8,-,N/A,Snow,Light Snow,40,2012-12-10 02:55:00
10:14 PM,21.2,19.4,93,29.89,1.2,NNE,5.8,-,N/A,Snow,Light Snow,30,2012-12-10 03:14:00
10:35 PM,21.2,19.4,93,29.88,2.0,NNE,4.6,-,N/A,Snow,Light Snow,30,2012-12-10 03:35:00
10:55 PM,21.2,21.2,100,29.87,3.0,NE,5.8,-,N/A,Snow,Light Snow,50,2012-12-10 03:55:00
11:14 PM,21.2,21.2,100,29.84,2.0,NE,5.8,-,N/A,Snow,Light Snow,50,2012-12-10 04:14:00
11:35 PM,21.2,21.2,100,29.84,3.0,NNE,3.5,-,N/A,Snow,Light Snow,30,2012-12-10 04:35:00
11:54 PM,21.2,21.2,100,29.82,5.0,NE,4.6,-,N/A,Snow,Light Snow,50,2012-12-10 04:54:00